| time (UTC) | temp F | wind direction | speed knots | gust knots | rain 1hr in | rain 24hr in | rain mn in | humidity % | barometer mb |
| 20260504081512 | 62 | 18 | 0.0 | 0.0 | 0.00 | 0.00 | 0.00 | 58 | 1004.4 |
| 20260504044549 | 73 | 19 | 0.0 | 0.0 | 0.00 | 0.00 | 0.00 | 35 | 1004.4 |
| 20260504043049 | 74 | 19 | 0.0 | 0.0 | 0.00 | 0.00 | 0.00 | 34 | 1004.4 |
| 20260504041549 | 74 | 18 | 0.0 | 1.7 | 0.00 | 0.00 | 0.00 | 33 | 1004.4 |
| 20260504040110 | 75 | 18 | 0.0 | 0.0 | 0.00 | 0.00 | 0.00 | 33 | 1004.3 |
| 20260504034547 | 76 | 18 | 0.0 | 0.0 | 0.00 | 0.00 | 0.00 | 31 | 1004.3 |
| 20260504033047 | 78 | 19 | 0.0 | 0.0 | 0.00 | 0.00 | 0.00 | 31 | 1004.2 |
| 20260504031548 | 80 | 18 | 0.0 | 0.0 | 0.00 | 0.00 | 0.00 | 27 | 1004.2 |
| 20260504030046 | 82 | 19 | 0.0 | 0.0 | 0.00 | 0.00 | 0.00 | 26 | 1004.1 |
| 20260504024548 | 83 | 18 | 0.0 | 0.0 | 0.00 | 0.00 | 0.00 | 24 | 1004.2 |
| 20260504023053 | 83 | 20 | 0.0 | 0.9 | 0.00 | 0.00 | 0.00 | 23 | 1004.3 |
| 20260504021545 | 84 | 19 | 0.0 | 1.7 | 0.00 | 0.00 | 0.00 | 22 | 1004.3 |
| 20260504020041 | 85 | 16 | 0.0 | 2.6 | 0.00 | 0.00 | 0.00 | 21 | 1004.4 |
| 20260504014551 | 86 | 16 | 0.0 | 2.6 | 0.00 | 0.00 | 0.00 | 21 | 1004.5 |
| 20260504013038 | 86 | 12 | 0.0 | 0.0 | 0.00 | 0.00 | 0.00 | 20 | 1004.7 |
| 20260504011540 | 87 | 11 | 0.0 | 0.0 | 0.00 | 0.00 | 0.00 | 20 | 1004.7 |
| 20260504010035 | 87 | 12 | 0.0 | 4.3 | 0.00 | 0.00 | 0.00 | 21 | 1005.1 |
| 20260504004542 | 88 | 4 | 0.9 | 3.5 | 0.00 | 0.00 | 0.00 | 20 | 1005.2 |
| 20260504003031 | 87 | 359 | 0.9 | 3.5 | 0.00 | 0.00 | 0.00 | 21 | 1005.4 |
| 20260504001530 | 87 | 359 | 0.0 | 6.1 | 0.00 | 0.00 | 0.00 | 20 | 1005.6 |
| 20260504000029 | 87 | 29 | 0.0 | 7.0 | 0.00 | 0.00 | 0.00 | 20 | 1005.7 |
| 20260503234529 | 87 | 359 | 0.9 | 7.8 | 0.00 | 0.00 | 0.00 | 21 | 1005.9 |
| 20260503233026 | 87 | 8 | 0.9 | 8.7 | 0.00 | 0.00 | 0.00 | 19 | 1006.1 |
| 20260503231524 | 88 | 290 | 0.9 | 5.2 | 0.00 | 0.00 | 0.00 | 21 | 1006.3 |
| 20260503230026 | 88 | 4 | 0.9 | 4.3 | 0.00 | 0.00 | 0.00 | 22 | 1006.4 |
| 20260503224518 | 88 | 257 | 1.7 | 5.2 | 0.00 | 0.00 | 0.00 | 22 | 1006.7 |
| 20260503223016 | 88 | 8 | 0.9 | 5.2 | 0.00 | 0.00 | 0.00 | 20 | 1006.8 |
| 20260503221514 | 88 | 324 | 0.9 | 3.5 | 0.00 | 0.00 | 0.00 | 24 | 1007.0 |
| 20260503220011 | 87 | 284 | 0.0 | 4.3 | 0.00 | 0.00 | 0.00 | 24 | 1007.2 |
| 20260503214508 | 86 | 24 | 0.9 | 3.5 | 0.00 | 0.00 | 0.00 | 25 | 1007.5 |
| 20260503213006 | 87 | 10 | 0.9 | 3.5 | 0.00 | 0.00 | 0.00 | 24 | 1007.7 |
| 20260503211505 | 87 | 359 | 0.9 | 3.5 | 0.00 | 0.00 | 0.00 | 23 | 1007.9 |
| 20260503210100 | 85 | 236 | 0.0 | 2.6 | 0.00 | 0.00 | 0.00 | 28 | 1008.1 |
| 20260503204558 | 85 | 299 | 0.9 | 3.5 | 0.00 | 0.00 | 0.00 | 28 | 1008.4 |
| 20260503203056 | 85 | 4 | 0.0 | 1.7 | 0.00 | 0.00 | 0.00 | 26 | 1008.4 |
| 20260503201552 | 84 | 18 | 0.0 | 0.0 | 0.00 | 0.00 | 0.00 | 29 | 1008.5 |
| 20260503200057 | 84 | 18 | 0.0 | 0.0 | 0.00 | 0.00 | 0.00 | 31 | 1008.8 |
| 20260503194544 | 83 | 19 | 0.0 | 0.0 | 0.00 | 0.00 | 0.00 | 30 | 1009.0 |
| 20260503193045 | 82 | 19 | 0.0 | 1.7 | 0.00 | 0.00 | 0.00 | 34 | 1009.2 |
| 20260503191538 | 81 | 15 | 0.9 | 3.5 | 0.00 | 0.00 | 0.00 | 33 | 1009.4 |
| 20260503190036 | 80 | 11 | 0.9 | 4.3 | 0.00 | 0.00 | 0.00 | 35 | 1009.7 |
| 20260503184533 | 80 | 359 | 0.0 | 0.0 | 0.00 | 0.00 | 0.00 | 35 | 1009.9 |
| 20260503183027 | 79 | 344 | 0.0 | 2.6 | 0.00 | 0.00 | 0.00 | 37 | 1010.0 |
| 20260503181525 | 78 | 8 | 0.9 | 2.6 | 0.00 | 0.00 | 0.00 | 38 | 1010.2 |
| 20260503180021 | 77 | 343 | 0.0 | 2.6 | 0.00 | 0.00 | 0.00 | 38 | 1010.3 |
| 20260503174519 | 76 | 348 | 0.9 | 2.6 | 0.00 | 0.00 | 0.00 | 41 | 1010.4 |
| 20260503173021 | 75 | 359 | 0.0 | 0.9 | 0.00 | 0.00 | 0.00 | 44 | 1010.6 |
| 20260503171519 | 73 | 327 | 0.0 | 2.6 | 0.00 | 0.00 | 0.00 | 46 | 1010.7 |